Regional Weather Roundup
Issued by NWS

Home | Current Version | Previous Version | Graphics & Text | Print | Product List | Glossary On
Versions: 1 2 3 4 5 6 7 8 9 10 11 12 13 14 15 16 17 18 19 20 21 22 23 24 25 26 27 28 29 30 31 32 33 34 35 36 37 38 39 40 41 42 43 44 45 46 47 48 49 50
000
ASUS43 KDMX 211406
RWRIA

WEATHER ROUNDUP FOR IOWA
NATIONAL WEATHER SERVICE DES MOINES IA
800 AM CST WED FEB 21 2018

NOTE: "FAIR" INDICATES FEW OR NO CLOUDS BELOW 12,000 FEET WITH NO
SIGNIFICANT WEATHER AND/OR OBSTRUCTIONS TO VISIBILITY.

* - THESE STATIONS ARE NOT NWS STATIONS...THUS NOT UNDER NWS
QUALITY CONTROL.  THEY ALSO DO NOT REPORT WEATHER SUCH
AS PRECIPITATION OR FOG.

IAZ001>003-012>014-020>022-031>034-043>046-211500-
   NORTHWEST IOWA

CITY           SKY/WX    TMP DP  RH WIND       PRES   REMARKS
CARROLL *      CLOUDY     9   3  78 CALM      30.60R
CHEROKEE *     CLOUDY     2  -1  86 CALM      30.59R
DENISON *      CLOUDY     7   3  85 CALM      30.61R
LE MARS *      CLOUDY     0  -4  85 S5        30.60R WCI -10
ORANGE CITY *  CLOUDY    -2  -6  84 CALM      30.56R
SHELDON *      CLOUDY    -2  -6  84 S3        30.54R
SIOUX CITY     CLOUDY     1  -1  91 S3        30.63R
SPENCER        MIX PCPN   0  -5  79 S6        30.57R WCI -12
STORM LAKE *   CLEAR      3   0  85 CALM      30.57R
$$

IAZ055>058-069>071-079>083-090>094-211500-
   SOUTHWEST IOWA

CITY           SKY/WX    TMP DP  RH WIND       PRES   REMARKS
ATLANTIC *     CLOUDY    10   5  79 N7        30.60S WCI   0
AUDUBON *      CLOUDY     9   3  78 CALM      30.59R
CLARINDA *     CLOUDY    12   9  85 NE9G15    30.63R WCI   0
COUNCIL BLFS * CLOUDY     9   7  92 N6        30.59R WCI  -1
CRESTON *      CLOUDY    10   5  79 N14       30.58R WCI  -5
HARLAN  *      CLOUDY     9   5  85 CALM      30.64R
LAMONI         CLOUDY    13   8  81 N9        30.56R WCI   1
RED OAK *      CLOUDY    10   7  85 N9        30.61S WCI  -2
SHENANDOAH *   CLOUDY    12   7  79 N10       30.62R WCI  -1
$$

IAZ047>049-059>061-072>074-084-211500-
   CENTRAL IOWA

CITY           SKY/WX    TMP DP  RH WIND       PRES   REMARKS
AMES           PTCLDY    11   5  77 N6        30.62R WCI   1
ANKENY *       PTCLDY    12   7  79 N8        30.64R WCI   1
BOONE *        CLOUDY    10   5  79 MISG      30.59R
CHARITON *     CLOUDY    14   9  79 N14       30.59R WCI  -1
DES MOINES     CLOUDY    13   6  74 N10       30.62R WCI   0
GRINNELL*      MOSUNNY   13   8  79 N13       30.60R WCI  -1
KNOXVILLE *    CLOUDY    14   5  67 N12       30.59R WCI   0
MARSHALLTOWN   PTCLDY    12   6  77 N10       30.60R WCI  -1
NEWTON *       CLOUDY    12   7  79 N10       30.61R WCI  -1
PELLA *        MOSUNNY   14   8  78 N7        30.62R WCI   4
PERRY *        FAIR      10   6  81 N6        30.62R WCI   1
$$

IAZ004>006-015-016-023>025-035-036-211500-
   NORTH CENTRAL IOWA

CITY           SKY/WX    TMP DP  RH WIND       PRES   REMARKS
ALGONA *       CLEAR      7 N/A N/A CALM      30.57R
CLARION *      CLOUDY     7   9 100 CALM      30.59R
ESTHERVILLE    CLOUDY     0  -4  83 SW6       30.55R WCI -12
FORT DODGE *   CLOUDY     6   3  87 CALM      30.60R
MASON CITY     CLOUDY     7   2  80 NW8       30.58R WCI  -6
FOREST CITY *  FAIR       9   5  85 CALM      30.56S
WEBSTER CITY * CLOUDY     7   1  78 CALM      30.59R
IOWA FALLS *   FAIR      11   6  79 NW5       30.59R WCI   3
$$

IAZ007>011-017>019-026>030-037>042-050>054-066-211500-
   NORTHEAST IOWA

CITY           SKY/WX    TMP DP  RH WIND       PRES   REMARKS
CEDAR RAPIDS   FAIR      16   8  71 N12       30.57R WCI   3
CHARLES CITY * FAIR      10   7  85 NW8       30.57S WCI  -1
CLINTON *        N/A     20  15  81 MISG        N/A
DECORAH *      FAIR       9   5  85 NW8       30.55R WCI  -4
DUBUQUE        FAIR      15   8  73 N15       30.53R WCI   0
MONTICELLO *   FAIR      16   9  73 N14       30.57R WCI   1
OELWEIN *      FAIR      12   7  79 N14       30.57R WCI  -3
WATERLOO       FAIR      11   5  77 N10       30.59R WCI  -3
$$

IAZ064-065-067-068-078-211500-
   EAST CENTRAL IOWA

CITY           SKY/WX    TMP DP  RH WIND       PRES   REMARKS
DAVENPORT      FAIR      21  13  71 NW13      30.57R WCI   9
IOWA CITY      FAIR      19   8  62 NW9       30.61R WCI   8
MT. PLEASANT * MOSUNNY   19  12  73 NW15G21   30.58R WCI   5
MUSCATINE *    FAIR      19  12  73 NW13      30.60R WCI   7
QUAD CITIES    FAIR      22  15  75 NW12      30.55R WCI  10
$$

IAZ062-063-075>077-085>089-095>099-211500-
   SOUTHEAST IOWA

CITY           SKY/WX    TMP DP  RH WIND       PRES   REMARKS
BURLINGTON     CLOUDY    20  14  77 NW12      30.56R WCI   8
FAIRFIELD *    MOSUNNY   18   9  68 N15       30.58R WCI   3
FORT MADISON * CLOUDY    19  16  86 N15       30.57R WCI   5
KEOKUK *       CLOUDY    21  16  79 N10       30.56R WCI  10
OSKALOOSA *    FAIR      16  11  81 N9        30.60R WCI   4
OTTUMWA        MOSUNNY   17  10  74 N15       30.59R WCI   2
WASHINGTON *   MOSUNNY   18  14  86 N13       30.60R WCI   4
$$

ABBREVIATIONS USED IN REMARKS
   TC - TEMPERATURES IN CELSIUS
  WCI - WIND CHILL INDEX
   HX - HEAT INDEX
  VSB - VISIBILITY
$$





USA.gov is the U.S. government's official web portal to all federal, state and local government web resources and services.